Regional Weather Roundup
Issued by NWS Kansas City/Pleasant Hill, MO

Home | Current Version | Previous Version | Graphics & Text | Print | Product List | Glossary Off
Versions: 1 2 3 4 5 6 7 8 9 10 11 12 13 14 15 16 17 18 19 20 21 22 23 24 25 26 27 28 29 30 31 32 33 34 35 36 37 38 39 40 41 42 43 44 45 46 47 48 49 50

000
ASUS43 KEAX 062010
RWREAX

WEATHER ROUNDUP FOR EASTERN KANSAS AND NORTHWEST MISSOURI
NATIONAL WEATHER SERVICE KANSAS CITY/PLEASANT HILL MO
200 PM CST SAT FEB 06 2016

KSZ040-057-103>105-MOZ028-029-037-043-062100-
...KANSAS CITY METROPOLITAN AREA...

CITY           SKY/WX    TMP DP  RH WIND       PRES   REMARKS
K.C. INTL      MOSUNNY   48  32  53 SW12      30.23F
K.C. DOWNTOWN  SUNNY     49  29  46 W12       30.24F
LEES SUMMIT    SUNNY     48  30  49 SW9       30.23F
OLATHE - IXD   LGT RAIN  47  31  53 SW9G23    30.25F
OLATHE - OJC   SUNNY     46  30  53 SW9       30.24F
LAWRENCE       SUNNY     48  28  46 SW14      30.25F

$$

MOZ001>008-011>017-020>025-030>033-038>040-044>046-053-054-062100-
...NORTHERN AND CENTRAL MISSOURI...

CITY           SKY/WX    TMP DP  RH WIND       PRES   REMARKS
ST. JOSEPH     SUNNY     46  30  53 SW10      30.23F
MOSBY          CLEAR     46  30  53 SW10      30.24F
WARRENSBURG    SUNNY     48  30  49 SW9G16    30.24F
WHITEMAN AFB   SUNNY     50  27  40 W9        30.22F
CLINTON          N/A     52  32  46 SW8       30.26F
SEDALIA        SUNNY     51  27  39 W14       30.24F
WARSAW         NOT AVBL
CHILLICOTHE      N/A     47  32  56 SW9       30.23F
KIRKSVILLE     SUNNY     47  27  45 SW12      30.19F

$$

MOZ041-047>049-056>058-063>065-088>090-097-062100-
...EASTERN AND SOUTHERN MISSOURI...

CITY           SKY/WX    TMP DP  RH WIND       PRES   REMARKS
ST. LOUIS INTL MOSUNNY   57  29  34 W12       30.22F
SPIRIT OF STL  MOSUNNY   55  30  38 SW13      30.21F
COLUMBIA       SUNNY     54  28  36 SW15G22   30.21F
JEFFERSON CITY SUNNY     54  28  36 W15       30.22F
ROLLA          MOSUNNY   54  28  36 SW18      30.20F
OSAGE BEACH    MOSUNNY   54  28  37 SW12G17   30.23F
SPRINGFIELD    PTSUNNY   53  27  36 SW15      30.24F
BRANSON        MOSUNNY   54  23  30 SW6       30.28F
JOPLIN         SUNNY     52  30  43 SW14      30.27F
WEST PLAINS    SUNNY     52  17  25 S7        30.27F

$$

IAZ060-094-KSZ022-034>040-054-083-096-NEZ052-066-093-062100-
...KANSAS...SOUTHEAST NEBRASKA AND IOWA...

CITY           SKY/WX    TMP DP  RH WIND       PRES   REMARKS
TOPEKA         SUNNY     50  28  42 W9        30.24F
MANHATTAN      SUNNY     47  29  49 SW13      30.24F
EMPORIA        SUNNY     48  27  44 W9        30.26F
CHANUTE        SUNNY     50  29  44 SW12      30.28F
WICHITA        MOSUNNY   48  26  42 SW9       30.28F
OMAHA          MOSUNNY   40  26  57 S15       30.13F WCI  32
LINCOLN        SUNNY     37  26  64 SW16      30.15F WCI  28
FALLS CITY     SUNNY     47  31  53 SW14      30.19F
LAMONI         CLOUDY    32  31  96 SW12      30.20F WCI  23
DES MOINES     MOSUNNY   35  28  75 SW10      30.16F WCI  27

$$




USA.gov is the U.S. government's official web portal to all federal, state and local government web resources and services.